Stations météo

réclame
Mon MeteoGroup
A12-CPP, Pays-Bas (6205): Température de l'air & dewpoint: 22.05.2018 12:00:00 - 28.05.2018 12:00:00 (CEST)A12-CPP, Pays-Bas (6205): Vitesse du vent & gusts: 22.05.2018 12:00:00 - 28.05.2018 12:00:00 (CEST)A12-CPP, Pays-Bas (6205): Direction du vent: 22.05.2018 12:00:00 - 28.05.2018 12:00:00 (CEST)A12-CPP, Pays-Bas (6205): reduced air pressure: 22.05.2018 12:00:00 - 28.05.2018 12:00:00 (CEST)A12-CPP, Pays-Bas (6205): visibility: 22.05.2018 12:00:00 - 28.05.2018 12:00:00 (CEST)
Date & Time tt [°C] td [°C] ff [km/h] ff [knt] fx [km/h] fx [knt] dd ppp [hPa] vv [km]
28.05.2018 12:00:00 - - - - - - - - -
28.05.2018 11:00:00 14,6 13,7 26 14 25 14 E 1021,8 10
28.05.2018 10:00:00 14,3 13,0 22 12 25 14 E 1021,5 10
28.05.2018 09:00:00 14,0 13,2 28 15 36 19 E 1021,4 10
28.05.2018 08:00:00 14,2 13,2 31 17 36 19 E 1021,1 10
28.05.2018 07:00:00 14,2 13,2 39 21 36 19 E 1020,6 10
28.05.2018 06:00:00 14,3 13,1 35 19 36 19 E 1020,4 10
28.05.2018 05:00:00 14,6 13,1 34 18 32 18 ENE 1020,6 10
28.05.2018 04:00:00 15,0 13,5 31 17 32 18 E 1020,7 10
28.05.2018 03:00:00 15,2 13,2 37 20 36 19 E 1021,1 10
28.05.2018 02:00:00 15,5 13,1 41 22 40 21 E 1021,5 10
28.05.2018 01:00:00 15,9 13,3 34 18 32 18 E 1021,4 10
28.05.2018 00:00:00 15,7 13,6 28 15 29 16 E 1021,4 10
27.05.2018 23:00:00 14,7 13,3 34 18 32 18 E 1021,4 10
27.05.2018 22:00:00 14,8 13,2 29 16 29 16 ENE 1021,5 10
27.05.2018 21:00:00 14,7 13,1 31 17 32 18 ENE 1021,4 10
27.05.2018 20:00:00 15,2 12,8 31 17 32 18 ENE 1021,5 10
27.05.2018 19:00:00 16,3 12,6 37 20 36 19 ENE 1021,7 10
27.05.2018 18:00:00 15,4 13,0 41 22 36 19 ENE 1022,2 10
27.05.2018 17:00:00 14,5 12,9 34 18 36 19 ENE 1022,7 10
27.05.2018 16:00:00 14,3 13,0 34 18 36 19 E 1023,1 10
27.05.2018 15:00:00 14,2 13,1 34 18 32 18 E 1023,3 10
27.05.2018 14:00:00 14,4 12,1 31 17 29 16 E 1023,5 10
27.05.2018 13:00:00 15,6 11,6 29 16 32 18 E 1023,8 10
27.05.2018 12:00:00 15,6 11,7 35 19 32 18 E 1024,0 10
27.05.2018 11:00:00 15,5 11,7 29 16 29 16 E 1024,3 10
27.05.2018 10:00:00 14,5 12,0 34 18 32 18 E 1024,4 10
27.05.2018 09:00:00 14,1 12,1 29 16 29 16 E 1024,6 10
27.05.2018 08:00:00 14,2 11,9 31 17 29 16 E 1024,3 10
27.05.2018 07:00:00 13,7 11,9 26 14 25 14 E 1024,2 10
27.05.2018 06:00:00 13,5 12,1 26 14 29 16 ENE 1024,1 10
27.05.2018 05:00:00 15,1 12,1 29 16 36 19 E 1024,1 41
27.05.2018 04:00:00 14,4 12,0 34 18 32 18 ENE 1024,6 10
27.05.2018 03:00:00 14,4 11,1 31 17 32 18 ENE 1025,1 10
27.05.2018 02:00:00 14,8 10,7 39 21 43 23 ENE 1025,7 10
27.05.2018 01:00:00 15,1 10,2 46 25 47 25 ENE 1025,8 10
27.05.2018 00:00:00 15,1 10,0 46 25 43 23 ENE 1025,9 10
26.05.2018 23:00:00 15,0 10,5 36 19 43 23 ENE 1025,8 39
26.05.2018 22:00:00 15,0 10,6 44 24 40 21 ENE 1025,6 10
26.05.2018 21:00:00 15,7 10,9 42 23 - - ENE 1025,4 10
26.05.2018 20:00:00 15,2 10,0 34 18 32 18 ENE 1025,5 10
26.05.2018 19:00:00 15,8 9,7 39 21 36 19 ENE 1025,3 10
26.05.2018 18:00:00 16,1 10,2 39 21 36 19 E 1025,5 10
26.05.2018 17:00:00 14,6 10,6 37 20 36 19 E 1025,7 10
26.05.2018 16:00:00 14,6 11,1 31 17 29 16 E 1025,8 10
26.05.2018 15:00:00 13,7 11,2 26 14 25 14 ENE 1025,9 10
26.05.2018 14:00:00 12,9 10,6 26 14 25 14 ENE 1026,0 10
26.05.2018 13:00:00 12,7 10,2 26 14 25 14 ENE 1025,8 10
26.05.2018 12:00:00 13,1 9,8 21 11 18 10 ENE 1026,0 10
26.05.2018 11:00:00 13,9 9,5 21 11 22 12 NE 1025,8 10
26.05.2018 10:00:00 13,6 9,7 16 9 22 12 ENE 1025,8 10
26.05.2018 09:00:00 13,6 9,4 24 13 25 14 ENE 1025,7 10
26.05.2018 08:00:00 16,9 9,1 26 14 29 16 ENE 1025,5 10
26.05.2018 07:00:00 16,9 9,7 35 19 32 18 ENE 1025,5 10
26.05.2018 06:00:00 13,6 10,5 34 18 32 18 ENE 1025,4 10
26.05.2018 05:00:00 13,2 10,4 28 15 32 18 ENE 1025,3 10
26.05.2018 04:00:00 14,4 10,4 31 17 29 16 E 1024,9 10
26.05.2018 03:00:00 14,7 10,1 35 19 40 21 E 1025,2 10
26.05.2018 02:00:00 16,2 9,5 46 25 43 23 E 1025,0 10
26.05.2018 01:00:00 14,4 10,3 50 27 47 25 E 1024,9 10
26.05.2018 00:00:00 14,3 10,5 42 23 47 25 E 1024,5 10
25.05.2018 23:00:00 15,2 9,9 54 29 50 27 E 1024,2 10
25.05.2018 22:00:00 14,9 10,1 46 25 43 23 E 1024,1 10
25.05.2018 21:00:00 14,9 10,0 46 25 43 23 ENE 1023,5 10
25.05.2018 20:00:00 15,3 10,1 46 25 43 23 E 1023,3 10
25.05.2018 19:00:00 14,5 10,5 44 24 43 23 E 1023,1 10
25.05.2018 18:00:00 13,7 10,9 41 22 40 21 E 1023,3 10
25.05.2018 17:00:00 13,3 11,3 39 21 36 19 E 1023,6 10
25.05.2018 16:00:00 12,9 11,3 37 20 43 23 E 1023,5 10
25.05.2018 15:00:00 12,9 11,3 41 22 40 21 E 1023,5 10
25.05.2018 14:00:00 12,3 11,1 42 23 43 23 E 1023,2 10
25.05.2018 13:00:00 12,6 11,1 42 23 40 21 E 1023,1 10
25.05.2018 12:00:00 12,2 10,9 41 22 40 21 E 1023,1 10
25.05.2018 11:00:00 12,4 10,8 41 22 40 21 E 1023,0 10
25.05.2018 10:00:00 12,3 10,5 41 22 40 21 E 1022,8 10
25.05.2018 09:00:00 12,4 10,2 42 23 40 21 E 1022,5 10
25.05.2018 08:00:00 12,5 10,0 36 19 43 23 E 1022,2 24
25.05.2018 07:00:00 12,7 9,7 44 24 47 25 E 1022,1 10
25.05.2018 06:00:00 13,1 9,5 46 25 47 25 E 1022,0 10
25.05.2018 05:00:00 13,2 9,3 48 26 47 25 E 1022,0 10
25.05.2018 04:00:00 13,6 9,3 46 25 47 25 E 1022,2 10
25.05.2018 03:00:00 13,7 9,3 44 24 43 23 E 1022,6 10
25.05.2018 02:00:00 13,8 9,6 42 23 43 23 E 1022,8 10
25.05.2018 01:00:00 13,8 9,5 42 23 - - E 1023,1 10
25.05.2018 00:00:00 14,4 9,1 46 25 43 23 E 1023,2 10
24.05.2018 23:00:00 13,9 9,6 40 21 43 23 E 1023,5 34
24.05.2018 22:00:00 14,0 9,8 46 25 43 23 E 1023,4 10
24.05.2018 21:00:00 13,9 9,9 42 23 40 21 E 1023,2 10
24.05.2018 20:00:00 14,5 10,1 42 23 40 21 ENE 1023,2 10
24.05.2018 19:00:00 14,8 10,2 44 24 40 21 ENE 1023,5 10
24.05.2018 18:00:00 13,8 10,0 42 23 40 21 ENE 1023,8 10
24.05.2018 17:00:00 12,6 10,3 39 21 36 19 E 1024,3 10
24.05.2018 16:00:00 11,8 10,3 32 18 40 21 E 1024,8 20
24.05.2018 15:00:00 12,1 10,0 41 22 40 21 ENE 1025,1 10
24.05.2018 14:00:00 12,1 10,0 42 23 40 21 ENE 1025,8 10
24.05.2018 13:00:00 11,8 9,9 41 22 40 21 ENE 1026,2 10
24.05.2018 12:00:00 11,5 10,0 37 20 40 21 ENE 1026,4 10
24.05.2018 11:00:00 11,4 9,8 39 21 40 21 ENE 1026,6 10
24.05.2018 10:00:00 11,2 9,5 39 21 36 19 ENE 1026,9 10
24.05.2018 09:00:00 10,9 9,2 35 19 36 19 ENE 1026,8 10
24.05.2018 08:00:00 10,9 9,2 35 19 36 19 ENE 1026,8 10
24.05.2018 07:00:00 10,3 9,5 34 18 32 18 ENE 1026,8 10
24.05.2018 06:00:00 10,0 9,6 29 16 29 16 ENE 1027,2 10
24.05.2018 05:00:00 9,6 9,5 24 13 29 16 ENE 1027,4 10
24.05.2018 04:00:00 9,0 9,0 29 16 29 16 ENE 1027,7 1,5
24.05.2018 03:00:00 8,7 8,7 29 16 32 18 ENE 1027,8 2,0
24.05.2018 02:00:00 8,5 8,5 35 19 32 18 ENE 1028,0 1,5
24.05.2018 01:00:00 8,1 8,1 31 17 32 18 ENE 1028,2 1,4
24.05.2018 00:00:00 7,9 7,9 34 18 32 18 NE 1028,2 0,4
23.05.2018 23:00:00 8,1 8,1 29 16 32 18 NE 1028,1 0,3
23.05.2018 22:00:00 8,2 8,2 29 16 32 18 NE 1027,8 0,2
23.05.2018 21:00:00 8,3 8,3 31 17 32 18 NE 1027,6 0,3
23.05.2018 20:00:00 8,6 8,4 31 17 32 18 NE 1027,3 0,6
23.05.2018 19:00:00 8,6 8,2 29 16 32 18 NE 1027,4 3,1
23.05.2018 18:00:00 9,0 8,3 29 16 29 16 NE 1027,7 3,2
23.05.2018 17:00:00 8,9 8,1 28 15 29 16 NE 1027,8 8
23.05.2018 16:00:00 9,1 8,1 24 13 25 14 NE 1027,8 10
23.05.2018 15:00:00 8,9 7,9 26 14 25 14 NE 1027,7 9
23.05.2018 14:00:00 8,8 7,9 24 13 25 14 NE 1027,5 10
23.05.2018 13:00:00 9,0 8,1 26 14 29 16 NE 1027,4 10
23.05.2018 12:00:00 8,6 8,0 24 13 29 16 NE 1027,0 9
23.05.2018 11:00:00 8,6 8,3 26 14 32 18 NE 1026,6 4,2
23.05.2018 10:00:00 8,4 8,4 28 15 32 18 NNE 1026,2 1,0
23.05.2018 09:00:00 8,1 8,0 28 15 36 19 NNE 1025,6 0,7
23.05.2018 08:00:00 7,9 7,9 25 14 36 19 NE 1025,0 0,5
23.05.2018 07:00:00 7,7 7,7 26 14 36 19 NE 1024,2 0,3
23.05.2018 06:00:00 7,8 7,8 31 17 36 19 NNE 1023,5 0,3
23.05.2018 05:00:00 8,1 8,0 22 12 36 19 NNE 1023,2 0,4
23.05.2018 04:00:00 8,6 8,6 34 18 36 19 NNE 1023,0 0,6
23.05.2018 03:00:00 8,5 8,4 22 12 32 18 NNE 1022,7 0,2
23.05.2018 02:00:00 10,5 9,3 22 12 29 16 NNE 1022,3 10
23.05.2018 01:00:00 10,9 9,1 34 18 32 18 NE 1022,0 10
23.05.2018 00:00:00 11,1 9,8 34 18 32 18 NE 1021,5 10
22.05.2018 23:00:00 10,9 9,8 34 18 36 19 NNE 1021,2 10
22.05.2018 22:00:00 11,5 9,2 31 17 36 19 NNE 1020,5 10
22.05.2018 21:00:00 11,3 9,3 28 15 32 18 NNE 1020,0 10
22.05.2018 20:00:00 11,6 9,6 28 15 32 18 NNE 1019,8 10
22.05.2018 19:00:00 12,1 9,7 31 17 29 16 ENE 1019,5 10
22.05.2018 18:00:00 11,5 9,7 29 16 29 16 ENE 1019,3 10
22.05.2018 17:00:00 11,4 9,7 29 16 29 16 NE 1019,2 10
22.05.2018 16:00:00 11,3 9,7 31 17 29 16 NE 1019,2 10
22.05.2018 15:00:00 11,0 9,7 26 14 29 16 NNE 1019,0 10
22.05.2018 14:00:00 10,9 9,6 26 14 25 14 NNE 1018,7 10
22.05.2018 13:00:00 11,1 9,5 26 14 25 14 ENE 1018,4 10
22.05.2018 12:00:00 11,1 9,2 26 14 25 14 ENE 1018,1 10

tt = Température de l'air
td = dewpoint
ff = Vitesse du vent
fx = gusts
dd = Direction du vent
ppp = reduced air pressure
vv = visibility

stations d'obs. à proximité